Location: Alpha Ridge Park
(39.3209°N, 76.9128°W)
Time: 23:47:09
(UTC-04:00)

Vanguard 2 Rocket - Pass Details

Date: 30 May 2019
Orbit: 554 x 3326 km, 32.9° (Epoch: 19 June)

Event Time Altitude Azimuth Distance (km) Brightness Sun altitude
Rises 11:50:52 0° 278° (W) 6,059 10.9 66.4°
Reaches altitude 10° 11:57:08 10° 263° (W) 4,442 10.4 67.2°
Maximum altitude 12:03:38 17° 228° (SW) 3,194 9.9 68.1°
Drops below altitude 10° 12:08:31 10° 190° (S) 3,159 10.0 68.7°
Sets 12:11:56 0° 170° (S) 3,721 10.3 69.1°
